Regional Weather Roundup
Issued by NWS

Home | Current Version | Previous Version | Graphics & Text | Print | Product List | Glossary On
Versions: 1 2 3 4 5 6 7 8 9 10 11 12 13 14 15 16 17 18 19 20 21 22 23 24 25 26 27 28 29 30 31 32 33 34 35 36 37 38 39 40 41 42 43 44 45 46 47 48 49 50
000
ASUS45 KPSR 281710
RWRAZ

ARIZONA REGIONAL HOURLY WEATHER ROUNDUP
NATIONAL WEATHER SERVICE PHOENIX AZ
1000 AM MST MON JUL 28 2014

NOTE: FAIR INDICATES FEW OR NO CLOUDS BELOW 12,000 FEET WITH NO
SIGNIFICANT WEATHER AND/OR OBSTRUCTIONS TO VISIBILITY.

AZZ001>003-036-281800-
NORTHWEST ARIZONA

CITY           SKY/WX    TMP DP  RH WIND       PRES   REMARKS
BULLHEAD CITY  SUNNY     95  59  30 NW5       30.01F
KINGMAN        SUNNY     88  53  30 MISG      30.20F
$$

AZZ004>008-015-016-018-281800-
NORTH CENTRAL ARIZONA

CITY           SKY/WX    TMP DP  RH WIND       PRES   REMARKS
GRAND CANYON   MOSUNNY   73  52  47 SE8       30.44F
WILLIAMS       PTSUNNY   73  54  49 CALM      30.51S
PRESCOTT       MOSUNNY   81  52  36 CALM      30.33S
FLAGSTAFF      MOSUNNY   73  49  42 N5        30.48S
PAYSON         PTSUNNY   79  52  38 VRB3      30.37S
PAGE           SUNNY     83  54  36 VRB5      30.28R
$$

AZZ009>014-017-281800-
NORTHEAST ARIZONA

CITY           SKY/WX    TMP DP  RH WIND       PRES   REMARKS
WINSLOW        LGT RAIN  69  61  75 SE3       30.37R
SAINT JOHNS    CLOUDY    70  57  63 NW3       30.39S
WINDOW ROCK    CLOUDY    73  52  47 VRB6      30.47S
SHOW LOW       LGT RAIN  63  54  72 CALM      30.47S
$$

AZZ023-281800-
GREATER PHOENIX AREA

CITY           SKY/WX    TMP DP  RH WIND       PRES   REMARKS
PHOENIX        PTSUNNY   94  58  29 E8        30.05S
BUCKEYE          N/A     91  61  35 E9        30.06S
GLENDALE       PTSUNNY   95  61  31 NE8       30.06F
LUKE AFB       NOT AVBL
DEER VALLEY    MOSUNNY   91  60  35 SE5       30.07F
SCOTTSDALE     PTSUNNY   92  59  33 S7        30.09S
MESA-FALCON    PTSUNNY   91  57  31 SE6       30.07S
MESA-GATEWAY   MOSUNNY   91  61  35 SE6       30.09
CHANDLER       PTSUNNY   95  61  31 E8        30.07S
$$

AZZ027-028-281800-
SOUTHWEST MARICOPA COUNTY AND PINAL COUNTY

CITY           SKY/WX    TMP DP  RH WIND       PRES   REMARKS
CASA GRANDE    SUNNY     91  61  35 E7        30.09R
GILA BEND      PTSUNNY   97  57  26 NE5       30.05R
$$

AZZ503-504-507>509-281800-
SOUTHEAST ARIZONA

CITY           SKY/WX    TMP DP  RH WIND       PRES   REMARKS
TUCSON         PTSUNNY   87  61  41 VRB6      30.19R
DAVIS-MONTHAN  PTSUNNY   85  62  45 SE13      30.17S
RYAN FIELD       N/A     86  63  45 E8        30.17R
NOGALES        CLOUDY    78  60  53 S10       30.28R
SIERRA VISTA   PTSUNNY   81  61  50 CALM      30.33S
DOUGLAS        PTSUNNY   74  63  68 SE7       30.31S
SAFFORD        PTSUNNY   82  60  47 E12       30.22S
$$

AZZ020-021-025-026-031-281800-
SOUTHWEST ARIZONA

CITY           SKY/WX    TMP DP  RH WIND       PRES   REMARKS
YUMA           MOSUNNY   97  58  27 S8        29.98S
$$

CAZ031-033-041-043-047-048-061-281800-
SOUTHERN CALIFORNIA

CITY           SKY/WX    TMP DP  RH WIND       PRES   REMARKS
DOWNTOWN L.A.  PTSUNNY   77  63  61 W5        30.06R
L.A. AIRPORT   PTSUNNY   72  64  76 W9        30.08R
SAN DIEGO      PTSUNNY   79  65  62 NW5       30.07S
BURBANK        PTSUNNY   80  55  42 SE5       30.08R
ONTARIO        CLOUDY    80  49  33 SW7       30.08R
RIVERSIDE      CLOUDY    81  44  27 VRB3      30.07S
PALM SPRINGS   CLOUDY    94  54  25 CALM      30.00R
EL CENTRO NAS  MOSUNNY   98  60  28 VRB6      29.95R
IMPERIAL       MOSUNNY   97  62  31 NW7       29.94S
BLYTHE           N/A    N/A N/A N/A MISG      29.99R
NEEDLES        MOSUNNY   98  57  25 CALM      30.02S
$$

NVZ020-UTZ003-281800-
SOUTHERN NEVADA-UTAH

CITY           SKY/WX    TMP DP  RH WIND       PRES   REMARKS
LAS VEGAS      PTSUNNY   87  58  37 VRB5      30.10R
SALT LAKE CITY MOSUNNY   88  48  25 S13       30.19F
$$

NMZ009-TXZ055-281800-
NEW MEXICO-WEST TEXAS

CITY           SKY/WX    TMP DP  RH WIND       PRES   REMARKS
ALBUQUERQUE    CLOUDY    77  54  44 S5G22     30.41S
EL PASO        CLOUDY    82  59  45 NE15      30.26F
$$


........................KEY........................
SKY/WX - SKY CONDITION/WEATHER
TMP    - TEMPERATURE IN FAHRENHEIT
DP     - DEW POINT IN FAHRENHEIT
RH     - RELATIVE HUMIDITY IN PERCENT
WIND   - DIRECTION AND SPEED IN MILES PER HOUR (MPH)
VRB    - VARIABLE WIND DIRECTION
PRES   - MEAN SEA LEVEL PRESSURE IN INCHES OF MERCURY
         F - FALLING PRESSURE   R - RISING PRESSURE
         S - STEADY PRESSURE
VSB    - VISIBILITY IN MILES
HX     - HEAT INDEX IN FAHRENHEIT
WCI    - WIND CHILL INDEX IN FAHRENHEIT
TC     - TEMPERATURE IN CELSIUS WHICH IS ALSO KNOWN AS
         TEMPERATURE IN CENTIGRADE
AFB    - AIR FORCE BASE
         LUKE AFB IS LUKE AIR FORCE BASE
         DAVIS-MONTHAN IS DAVIS-MONTHAN AIR FORCE BASE
NAS    - NAVAL AIR STATION
         EL CENTRO NAS IS EL CENTRO NAVAL AIR STATION
N/A    - NOT AVAILABLE


USA.gov is the U.S. government's official web portal to all federal, state and local government web resources and services.